Location: Caltech
(34.1382°N, 118.1253°W)
Time: 18:31:07
(UTC-07:00)

BREEZE M DEB (TANK) - Visible Passes

Search period start: 23 August 2016 00:00
Search period end: 02 September 2016 00:00
Orbit: 331 x 13714 km, 49.6° (Epoch: 22 August)

Date Brightness Start Highest point End Pass type
(mag) Time Alt. Az. Time Alt. Az. Time Alt. Az.
23 Aug 7.1 00:24:26 10° WNW 00:38:43 18° W 00:41:23 17° WSW visible
23 Aug 5.8 21:03:21 10° NW 22:02:57 81° SW 22:08:02 47° SSE visible
24 Aug 6.7 23:22:54 10° NW 23:49:14 30° W 23:52:02 28° WSW visible
25 Aug 6.1 19:52:54 10° WNW 21:10:15 84° NE 21:18:42 31° SE visible
26 Aug 6.2 22:20:37 10° NW 22:59:10 46° WSW 23:02:42 39° SW visible
27 Aug 6.6 18:38:50 10° WNW 20:16:23 75° NNE 20:29:23 16° ESE visible
28 Aug 6.0 21:16:09 10° NW 22:08:17 63° WSW 22:13:24 41° S visible
29 Aug 7.1 23:34:19 10° NW 23:52:14 19° W 23:57:26 16° WSW visible
30 Aug 6.1 20:08:25 10° NW 21:16:26 80° SW 21:24:08 31° SSE visible
31 Aug 6.7 22:31:29 10° NW 23:02:44 32° W 23:08:11 24° SW visible
01 Sep 6.5 18:56:58 10° WNW 20:23:30 86° NE 20:34:54 18° SE visible
